Regional Weather Roundup
Issued by NWS

Home | Current Version | Previous Version | Graphics & Text | Print | Product List | Glossary On
Versions: 1 2 3 4 5 6 7 8 9 10 11 12 13 14 15 16 17 18 19 20 21 22 23 24 25 26 27 28 29 30 31 32 33 34 35 36 37 38 39 40 41 42 43 44 45 46 47 48 49 50
000
ASUS45 KCYS 230610
RWRWY

WYOMING REGIONAL WEATHER ROUNDUP
NATIONAL WEATHER SERVICE CHEYENNE WY
1200 AM MDT SUN APR 23 2017

NOTE:  "FAIR" INDICATES FEW OR NO CLOUDS BELOW 12,000 FEET
WITH NO SIGNIFICANT WEATHER AND/OR OBSTRUCTIONS TO VISIBILITY.

WYZ001-230700-
YELLOWSTONE NATIONAL PARK

CITY           SKY/WX    TMP DP  RH WIND       PRES   REMARKS
LK YELLOWSTONE   N/A     27  24  89 CALM      30.09F
6HR MIN TEMP:  27; 6HR MAX TEMP:  43;

W YELLOWSTONE  NOT AVBL

$$
WYZ002>013-054>058-071-098>099-230700-
NORTHERN WYOMING

CITY           SKY/WX    TMP DP  RH WIND       PRES   REMARKS
JACKSON        FAIR      32  28  86 N8        30.05F WCI  25
CODY           FAIR      42  38  85 CALM      29.98F
GREYBULL       FAIR      45  36  70 N3        29.94F
6HR MIN TEMP:  45; 6HR MAX TEMP:  57;

WORLAND        FAIR      46  39  76 SW6       29.93F
6HR MIN TEMP:  45; 6HR MAX TEMP:  58;

SHERIDAN       FAIR      38  35  89 W3        29.93F
6HR MIN TEMP:  38; 6HR MAX TEMP:  60;

BUFFALO        FAIR      44  33  65 W8        29.96F
6HR MIN TEMP:  42; 6HR MAX TEMP:  58;

GILLETTE       FAIR      46  34  62 S14       29.96F
6HR MIN TEMP:  46; 6HR MAX TEMP:  57;

HULETT         FAIR      52  30  43 S14       29.99F
NEWCASTLE      FAIR      46  28  49 SE16G23   30.04F

$$
WYZ014>020-022>026-101>103-230700-
CENTRAL WYOMING

CITY           SKY/WX    TMP DP  RH WIND       PRES   REMARKS
BIG PINEY      FAIR      33  25  72 N7        30.08F WCI  27
6HR MIN TEMP:  32; 6HR MAX TEMP:  52;

PINEDALE       FAIR      32  27  80 CALM      30.09F
DUBOIS         FAIR      36  21  55 NW13      30.03F WCI  27
LANDER         FAIR      48  27  44 E3        29.98F
6HR MIN TEMP:  48; 6HR MAX TEMP:  59;

RIVERTON       FAIR      47  30  51 CALM      29.99F
6HR MIN TEMP:  44; 6HR MAX TEMP:  59;

CASPER         FAIR      43  33  68 SW8       30.01F
6HR MIN TEMP:  38; 6HR MAX TEMP:  57;

DOUGLAS        FAIR      46  30  53 S9        30.04F
6HR MIN TEMP:  44; 6HR MAX TEMP:  58;


$$
WYZ021-027>030-104>119-230700-
SOUTHERN WYOMING

CITY           SKY/WX    TMP DP  RH WIND       PRES   REMARKS
EVANSTON       FAIR      40  27  59 S9        30.08F WCI  34
6HR MIN TEMP:  40; 6HR MAX TEMP:  56;

KEMMERER         N/A     41  28  60 CALM      30.09F
FORT BRIDGER   FAIR      46  23  39 W3        30.12S
ROCK SPRINGS   FAIR      41  23  48 SW5       30.09S
6HR MIN TEMP:  41; 6HR MAX TEMP:  56;

DIXON            N/A     38  26  59 CALM      30.15S
RAWLINS        FAIR      35  19  52 CALM      30.09F
6HR MIN TEMP:  35; 6HR MAX TEMP:  56;

SARATOGA       FAIR      34  21  60 S9        30.11F WCI  26
LARAMIE        FAIR      36  27  69 SE18      30.10F WCI  26
6HR MIN TEMP:  36; 6HR MAX TEMP:  47;

CHEYENNE       FAIR      40  28  62 S16       30.14F WCI  31
6HR MIN TEMP:  40; 6HR MAX TEMP:  50;

TORRINGTON     FAIR      44  32  62 SE12      30.09F
6HR MIN TEMP:  43; 6HR MAX TEMP:  61;

PINE BLUFFS    FAIR      37  30  75 S12       30.15F WCI  30

$$



USA.gov is the U.S. government's official web portal to all federal, state and local government web resources and services.